{"data":{"norad_id":58534,"epoch":"2026-09-20T07:28:04.897920Z","epoch_age_seconds":163098,"freshness":"FRESH","line1":"1 58534U 23192D   26263.31116780  .00000751  00000+0  35983-4 0  9992","line2":"2 58534  53.1595 227.3557 0001668  61.9718 298.1452 15.31703159155949","mean_motion":15.31703159,"eccentricity":0.0001668,"inclination_deg":53.1595,"raan_deg":227.3557,"arg_perigee_deg":61.9718,"mean_anomaly_deg":298.1452,"bstar":3.5983e-5,"rev_number":15594,"period_min":94.012994067345,"perigee_km":469.58818731513,"apogee_km":471.87296953929,"semimajor_km":6848.8675784272,"source":"CELESTRAK","updated_at":"2026-09-21T09:00:33.912212Z"}}